Погода в Сети-Лагоас

Бразилия     19°28′03″S   44°14′53″W
темп.,
°C
ветер,
м/с
пор.,
м/с
влажн.,
%
обл.,
%
осадки,
мм/ч
давл.,
гПа
погр.,
м
26 февраля, пт
пт2600:00+19в358822 0.0 1012100
03:00+18в249224 0.0 1011106
06:00+18вюв369595 0.0 1012146
09:00+22в588576 0.4 1013429
12:00+24всв4579100 3.1 1012719
15:00+24всв348199 6.6 1010743
18:00+21в3892100 6.8 1012269
21:00+19вюв3896100 12.9 1014368
27 февраля, сб
сб2700:00+18св2899100 9.9 1015562
03:00+19в2997100 17.3 1013549
06:00+18в31096100 0.8 1014530
09:00+21в5987100 0.8 1016615
12:00+24всв4675100 0.2 1015869
15:00+24в2580100 1.4 1013892
18:00+21ссв1183100 0.9 101323
21:00+19вюв2488100 0.9 1015104
28 февраля, вс
вс2800:00+17в369380 0.0 1015145
03:00+17вюв379681 0.0 1014217
06:00+17в3796100 0.0 1015204
09:00+21всв4883100 0.0 1016789
12:00+24всв4770100 0.0 10151088
15:00+25всв467087 0.0 10121232
18:00+22в368591 0.1 1011178
21:00+20в378696 0.1 1014182
1 марта, пн
пн100:00+18в259577 0.0 1014142
03:00+17вюв229740 0.0 101381
06:00+17в269730 0.0 1015174
09:00+22всв488024 0.0 1015781
12:00+25всв4669100 0.0 10141140
15:00+26всв466788 0.0 10111310
18:00+22всв377967 0.0 1011163
21:00+18в357972 0.0 1014108
2 марта, вт
вт200:00+17в238912 0.0 101586
03:00+16вюв239546 0.0 101557
06:00+16в379666 0.0 1016188
09:00+21всв468172 0.0 1017719
12:00+24всв347062 0.0 1016959
15:00+26всв346132 0.0 10131449
18:00+22в22730 0.0 101326
21:00+19в23840 0.0 101535